• In Österreich
  • Länderverzeichnis
  • Für 7 Tage
  • Wassertemperatur
  • Satellitenkarten
  • Wetterkarte
  • News
  • Widgets
  • user-avatar
    Anmelden

    Stündliche Wetter Kavkiv Yar

    Heute, 18 Juli, Mittwoch

    Zeit Temperatur Niederschläge Wind Luftdruck Luftfeuchtigkeit
    00:00 +18°C° 0 mm 2 m/S 730 mmHg 89%
    01:00 +18°C° 0 mm 2 m/S 730 mmHg 91%
    02:00 +17°C° 0 mm 2 m/S 730 mmHg 93%
    03:00 +17°C° 0 mm 2 m/S 730 mmHg 94%
    04:00 +17°C° 0 mm 2 m/S 730 mmHg 95%
    05:00 +17°C° 0 mm 2 m/S 730 mmHg 95%
    06:00 +18°C° 0 mm 2 m/S 730 mmHg 90%
    07:00 +20°C° 0 mm 2 m/S 730 mmHg 86%
    08:00 +21°C° 0 mm 3 m/S 730 mmHg 80%
    09:00 +22°C° 0,2 mm 3 m/S 730 mmHg 76%
    10:00 +24°C° 0,2 mm 3 m/S 730 mmHg 73%
    11:00 +25°C° 0,2 mm 3 m/S 730 mmHg 69%
    12:00 +25°C° 0,3 mm 3 m/S 730 mmHg 69%
    13:00 +25°C° 0,3 mm 3 m/S 730 mmHg 69%
    14:00 +24°C° 0 mm 3 m/S 730 mmHg 73%
    15:00 +24°C° 0,4 mm 3 m/S 730 mmHg 74%
    16:00 +24°C° 0,4 mm 2 m/S 730 mmHg 76%
    17:00 +23°C° 0,4 mm 2 m/S 730 mmHg 78%
    18:00 +21°C° 0,4 mm 2 m/S 730 mmHg 81%
    19:00 +20°C° 0,4 mm 2 m/S 730 mmHg 85%
    20:00 +20°C° 0,4 mm 2 m/S 730 mmHg 89%
    21:00 +20°C° 0,1 mm 1 m/S 730 mmHg 90%
    22:00 +20°C° 0,1 mm 1 m/S 730 mmHg 90%
    23:00 +19°C° 0,1 mm 1 m/S 730 mmHg 91%

    Morgen, 19 Juli, Donnerstag

    Zeit Temperatur Niederschläge Wind Luftdruck Luftfeuchtigkeit
    00:00 +19°C° 0 mm 1 m/S 730 mmHg 92%
    01:00 +19°C° 0 mm 1 m/S 730 mmHg 92%
    02:00 +18°C° 0 mm 1 m/S 730 mmHg 93%
    03:00 +18°C° 0 mm 1 m/S 730 mmHg 93%
    04:00 +18°C° 0 mm 1 m/S 730 mmHg 94%
    05:00 +18°C° 0 mm 1 m/S 730 mmHg 95%
    06:00 +19°C° 0 mm 2 m/S 730 mmHg 90%
    07:00 +20°C° 0 mm 2 m/S 730 mmHg 85%
    08:00 +23°C° 0 mm 2 m/S 730 mmHg 81%
    09:00 +24°C° 0,1 mm 2 m/S 730 mmHg 75%
    10:00 +26°C° 0,1 mm 2 m/S 731 mmHg 69%
    11:00 +27°C° 0,1 mm 2 m/S 731 mmHg 63%
    12:00 +28°C° 0,2 mm 3 m/S 731 mmHg 61%
    13:00 +29°C° 0,2 mm 3 m/S 731 mmHg 59%
    14:00 +29°C° 0,2 mm 3 m/S 731 mmHg 57%
    15:00 +29°C° 0,4 mm 3 m/S 731 mmHg 59%
    16:00 +29°C° 0,4 mm 3 m/S 731 mmHg 61%
    17:00 +28°C° 0,4 mm 3 m/S 731 mmHg 64%
    18:00 +27°C° 0,2 mm 3 m/S 731 mmHg 70%
    19:00 +25°C° 0,2 mm 3 m/S 731 mmHg 77%
    20:00 +24°C° 0,2 mm 3 m/S 731 mmHg 83%
    21:00 +22°C° 0,4 mm 3 m/S 731 mmHg 87%
    22:00 +21°C° 0,4 mm 3 m/S 731 mmHg 90%
    23:00 +20°C° 0,4 mm 3 m/S 732 mmHg 93%

    übermorgen, 20 Juli, Freitag

    Zeit Temperatur Niederschläge Wind Luftdruck Luftfeuchtigkeit
    00:00 +20°C° 0 mm 3 m/S 732 mmHg 94%
    01:00 +20°C° 0 mm 3 m/S 732 mmHg 95%
    02:00 +19°C° 0 mm 3 m/S 732 mmHg 95%
    03:00 +19°C° 0 mm 3 m/S 732 mmHg 96%
    04:00 +19°C° 0 mm 3 m/S 732 mmHg 96%
    05:00 +18°C° 0 mm 3 m/S 732 mmHg 96%
    06:00 +20°C° 0 mm 4 m/S 732 mmHg 91%
    07:00 +21°C° 0 mm 4 m/S 733 mmHg 86%
    08:00 +22°C° 0 mm 5 m/S 733 mmHg 81%
    09:00 +23°C° 0,1 mm 5 m/S 733 mmHg 76%
    10:00 +26°C° 0,1 mm 5 m/S 733 mmHg 70%
    11:00 +27°C° 0,1 mm 5 m/S 733 mmHg 64%
    12:00 +27°C° 0,1 mm 5 m/S 733 mmHg 62%
    13:00 +28°C° 0,1 mm 5 m/S 733 mmHg 59%
    14:00 +28°C° 0,1 mm 6 m/S 733 mmHg 57%
    15:00 +28°C° 0,1 mm 5 m/S 733 mmHg 59%
    16:00 +28°C° 0,1 mm 5 m/S 733 mmHg 62%
    17:00 +27°C° 0,1 mm 5 m/S 733 mmHg 64%
    18:00 +26°C° 0,1 mm 5 m/S 733 mmHg 70%
    19:00 +23°C° 0,1 mm 4 m/S 733 mmHg 76%
    20:00 +22°C° 0,1 mm 4 m/S 733 mmHg 82%
    21:00 +21°C° 0 mm 3 m/S 733 mmHg 85%
    22:00 +21°C° 0 mm 3 m/S 733 mmHg 87%
    23:00 +20°C° 0 mm 3 m/S 734 mmHg 90%

    21 Juli, Samstag

    Zeit Temperatur Niederschläge Wind Luftdruck Luftfeuchtigkeit
    00:00 +20°C° 0 mm 3 m/S 734 mmHg 91%
    01:00 +19°C° 0 mm 4 m/S 734 mmHg 92%
    02:00 +19°C° 0 mm 4 m/S 734 mmHg 94%
    03:00 +19°C° 0 mm 4 m/S 734 mmHg 94%
    04:00 +18°C° 0 mm 4 m/S 734 mmHg 95%
    05:00 +18°C° 0 mm 4 m/S 734 mmHg 95%
    06:00 +19°C° 0 mm 4 m/S 734 mmHg 92%
    07:00 +20°C° 0 mm 4 m/S 734 mmHg 88%
    08:00 +21°C° 0 mm 5 m/S 734 mmHg 85%
    09:00 +22°C° 0,1 mm 5 m/S 734 mmHg 81%
    10:00 +23°C° 0,1 mm 5 m/S 735 mmHg 77%
    11:00 +25°C° 0,1 mm 5 m/S 735 mmHg 73%
    12:00 +26°C° 0,5 mm 5 m/S 735 mmHg 71%
    13:00 +26°C° 0,5 mm 5 m/S 735 mmHg 69%
    14:00 +27°C° 0,5 mm 5 m/S 735 mmHg 67%
    15:00 +27°C° 0,1 mm 5 m/S 735 mmHg 67%
    16:00 +27°C° 0,1 mm 5 m/S 735 mmHg 68%
    17:00 +27°C° 0,1 mm 4 m/S 735 mmHg 68%
    18:00 +25°C° 0 mm 4 m/S 735 mmHg 74%
    19:00 +24°C° 0 mm 3 m/S 735 mmHg 79%
    20:00 +23°C° 0 mm 2 m/S 735 mmHg 84%
    21:00 +21°C° 0,3 mm 2 m/S 735 mmHg 87%
    22:00 +20°C° 0,3 mm 2 m/S 735 mmHg 89%
    23:00 +20°C° 0,3 mm 3 m/S 735 mmHg 92%

    22 Juli, Sonntag

    Zeit Temperatur Niederschläge Wind Luftdruck Luftfeuchtigkeit
    00:00 +19°C° 0 mm 3 m/S 735 mmHg 93%
    01:00 +19°C° 0 mm 3 m/S 735 mmHg 93%
    02:00 +19°C° 0 mm 3 m/S 735 mmHg 94%
    03:00 +18°C° 0 mm 2 m/S 735 mmHg 94%
    04:00 +18°C° 0 mm 2 m/S 735 mmHg 94%
    05:00 +18°C° 0 mm 2 m/S 735 mmHg 93%
    06:00 +19°C° 0 mm 3 m/S 735 mmHg 87%
    07:00 +21°C° 0 mm 3 m/S 735 mmHg 81%
    08:00 +22°C° 0 mm 3 m/S 735 mmHg 74%
    09:00 +25°C° 0 mm 3 m/S 735 mmHg 68%
    10:00 +26°C° 0 mm 3 m/S 735 mmHg 61%
    11:00 +27°C° 0 mm 3 m/S 735 mmHg 54%
    12:00 +28°C° 0 mm 3 m/S 735 mmHg 52%
    13:00 +28°C° 0 mm 3 m/S 735 mmHg 50%
    14:00 +29°C° 0 mm 3 m/S 734 mmHg 47%
    15:00 +29°C° 0 mm 3 m/S 734 mmHg 49%
    16:00 +29°C° 0 mm 3 m/S 734 mmHg 50%
    17:00 +29°C° 0 mm 3 m/S 734 mmHg 51%
    18:00 +27°C° 0 mm 2 m/S 734 mmHg 57%
    19:00 +25°C° 0 mm 2 m/S 734 mmHg 63%
    20:00 +23°C° 0 mm 2 m/S 734 mmHg 69%
    21:00 +23°C° 0 mm 2 m/S 734 mmHg 71%
    22:00 +21°C° 0 mm 2 m/S 734 mmHg 74%
    23:00 +20°C° 0 mm 2 m/S 734 mmHg 76%

    23 Juli, Montag

    Zeit Temperatur Niederschläge Wind Luftdruck Luftfeuchtigkeit
    00:00 +20°C° 0 mm 2 m/S 734 mmHg 77%
    01:00 +19°C° 0 mm 2 m/S 734 mmHg 79%
    02:00 +19°C° 0 mm 2 m/S 734 mmHg 80%
    03:00 +20°C° 0 mm 1 m/S 734 mmHg 80%
    04:00 +19°C° 0 mm 1 m/S 734 mmHg 81%
    05:00 +19°C° 0 mm 1 m/S 734 mmHg 81%
    06:00 +21°C° 0 mm 1 m/S 734 mmHg 77%
    07:00 +21°C° 0 mm 2 m/S 735 mmHg 72%
    08:00 +24°C° 0 mm 2 m/S 735 mmHg 68%
    09:00 +25°C° 0 mm 2 m/S 735 mmHg 63%
    10:00 +26°C° 0 mm 2 m/S 735 mmHg 57%
    11:00 +28°C° 0 mm 3 m/S 735 mmHg 52%
    12:00 +28°C° 0 mm 2 m/S 734 mmHg 50%
    13:00 +29°C° 0 mm 2 m/S 734 mmHg 47%
    14:00 +29°C° 0 mm 2 m/S 734 mmHg 45%
    15:00 +29°C° 0 mm 2 m/S 734 mmHg 46%
    16:00 +29°C° 0 mm 2 m/S 734 mmHg 48%
    17:00 +29°C° 0 mm 2 m/S 734 mmHg 49%
    18:00 +27°C° 0 mm 2 m/S 734 mmHg 55%
    19:00 +25°C° 0 mm 2 m/S 735 mmHg 62%
    20:00 +24°C° 0 mm 2 m/S 735 mmHg 68%
    21:00 +23°C° 0 mm 2 m/S 735 mmHg 71%
    22:00 +21°C° 0 mm 2 m/S 735 mmHg 75%
    23:00 +20°C° 0 mm 2 m/S 735 mmHg 78%
    Mehr zeigen